Location: Casteau
(50.5142°N, 4.0161°E)
Time: 04:27:53
(UTC+00:00)

Transit 2A Rocket - All Passes

Search period start: 06 August 2021 00:00
Search period end: 16 August 2021 00:00
Orbit: 589 x 914 km, 66.7° (Epoch: 05 August)

Date Brightness Start Highest point End Pass type
(mag) Time Alt. Az. Time Alt. Az. Time Alt. Az.
06 Aug - 12:02:11 10° S 12:06:04 29° ESE 12:10:15 10° NE daylight
06 Aug - 13:43:56 10° WSW 13:48:23 49° NW 13:53:17 10° NNE daylight
06 Aug - 15:29:01 10° WNW 15:32:15 17° NNW 15:35:40 10° NNE daylight
06 Aug - 17:14:19 10° NNW 17:16:58 14° N 17:19:43 10° NE daylight
06 Aug - 18:57:01 10° NNW 19:01:25 25° NNE 19:06:07 10° E daylight
06 Aug - 20:39:16 10° NW 20:44:47 82° NE 20:50:43 10° SE visible
06 Aug - 22:22:39 10° WNW 22:26:54 22° WSW 22:31:22 10° SSW visible
07 Aug - 11:20:45 10° SSE 11:23:46 18° ESE 11:26:56 10° ENE daylight
07 Aug - 13:01:05 10° SW 13:05:38 75° NW 13:10:39 10° NE daylight
07 Aug - 14:45:27 10° WNW 14:49:07 21° NNW 14:53:03 10° NNE daylight
07 Aug - 16:31:11 10° NNW 16:33:42 13° N 16:36:19 10° NNE daylight
07 Aug - 18:14:27 10° NNW 18:18:21 20° NNE 18:22:29 10° ENE daylight
07 Aug - 19:56:39 10° NNW 20:02:03 56° NE 20:07:51 10° SE visible
07 Aug - 21:39:30 10° NW 21:44:31 34° WSW 21:49:49 10° S visible
08 Aug - 12:18:31 10° SSW 12:23:01 69° ESE 12:27:57 10° NE daylight
08 Aug - 14:02:02 10° W 14:06:05 28° NNW 14:10:28 10° NNE daylight
08 Aug - 15:47:47 10° NW 15:50:26 14° N 15:53:13 10° NNE daylight
08 Aug - 17:31:49 10° NNW 17:35:12 17° NNE 17:38:45 10° ENE daylight
08 Aug - 19:14:06 10° NNW 19:19:13 40° NE 19:24:43 10° ESE daylight
08 Aug - 20:56:37 10° NW 21:02:01 53° WSW 21:07:47 10° SSE visible
09 Aug - 11:36:17 10° S 11:40:31 41° ESE 11:45:08 10° NE daylight
09 Aug - 13:18:47 10° WSW 13:23:09 38° NW 13:27:54 10° NNE daylight
09 Aug - 15:04:12 10° NW 15:07:13 16° NNW 15:10:23 10° NNE daylight
09 Aug - 16:49:04 10° NNW 16:51:59 15° N 16:55:02 10° NE daylight
09 Aug - 18:31:33 10° NNW 18:36:17 30° NE 18:41:22 10° E daylight
09 Aug - 20:13:53 10° NW 20:19:26 79° SW 20:25:23 10° SSE visible
09 Aug - 21:57:52 10° WNW 22:01:21 17° WSW 22:04:57 10° SW visible
10 Aug - 10:54:27 10° SSE 10:58:08 25° ESE 11:02:04 10° ENE daylight
10 Aug - 12:35:46 10° SW 12:40:18 57° NW 12:45:18 10° NNE daylight
10 Aug - 14:20:36 10° WNW 14:24:02 19° NNW 14:27:42 10° NNE daylight
10 Aug - 16:06:05 10° NNW 16:08:44 14° N 16:11:29 10° NE daylight
10 Aug - 17:48:59 10° NNW 17:53:16 23° NNE 17:57:49 10° E daylight
10 Aug - 19:31:14 10° NW 19:36:46 72° NE 19:42:42 10° SE daylight
10 Aug - 21:14:24 10° WNW 21:19:01 26° WSW 21:23:50 10° SSW visible
11 Aug - 10:13:20 10° SE 10:15:52 15° ESE 10:18:31 10° ENE daylight
11 Aug - 11:53:01 10° SW 11:57:36 88° NW 12:02:40 10° NE daylight
11 Aug - 13:37:05 10° W 13:40:56 23° NNW 13:45:05 10° NNE daylight
11 Aug - 15:22:51 10° NW 15:25:28 14° N 15:28:11 10° NNE daylight
11 Aug - 17:06:24 10° NNW 17:10:10 19° NNE 17:14:08 10° ENE daylight
11 Aug - 18:48:39 10° NNW 18:53:59 50° NE 18:59:44 10° ESE daylight
11 Aug - 20:31:22 10° NW 20:36:35 40° WSW 20:42:06 10° S visible
12 Aug - 11:10:33 10° SSW 11:15:01 57° ESE 11:19:55 10° NE daylight
12 Aug - 12:53:43 10° W 12:57:56 31° NW 13:02:31 10° NNE daylight
12 Aug - 14:39:22 10° NW 14:42:12 15° N 14:45:10 10° NNE daylight
12 Aug - 16:23:43 10° NNW 16:26:59 16° NNE 16:30:24 10° NE daylight
12 Aug - 18:06:05 10° NNW 18:11:08 36° NE 18:16:31 10° ESE daylight
12 Aug - 19:48:32 10° NW 19:54:03 61° WSW 19:59:56 10° SSE visible
12 Aug - 21:33:34 10° W 21:35:44 12° WSW 21:37:56 10° SW visible
13 Aug - 10:28:27 10° S 10:32:33 34° ESE 10:37:01 10° NE daylight
13 Aug - 12:10:33 10° WSW 12:15:01 44° NW 12:19:56 10° NNE daylight
13 Aug - 13:55:47 10° WNW 13:58:59 17° NNW 14:02:24 10° NNE daylight
13 Aug - 15:40:53 10° NNW 15:43:45 14° N 15:46:44 10° NE daylight
13 Aug - 17:23:32 10° NNW 17:28:10 27° NNE 17:33:05 10° E daylight
13 Aug - 19:05:50 10° NW 19:11:26 90° WSW 19:17:25 10° SE daylight
13 Aug - 20:49:27 10° WNW 20:53:28 20° WSW 20:57:38 10° SSW visible
14 Aug - 09:46:49 10° SSE 09:50:14 21° ESE 09:53:51 10° ENE daylight
14 Aug - 11:27:38 10° SW 11:32:14 67° NW 11:37:19 10° NE daylight
14 Aug - 13:12:12 10° WNW 13:15:50 20° NNW 13:19:44 10° NNE daylight
14 Aug - 14:57:49 10° NNW 15:00:29 14° N 15:03:16 10° NNE daylight
14 Aug - 16:40:58 10° NNW 16:45:07 22° NNE 16:49:29 10° ENE daylight
14 Aug - 18:23:13 10° NNW 18:28:44 63° NE 18:34:38 10° SE daylight
14 Aug - 20:06:12 10° NW 20:11:06 31° WSW 20:16:15 10° S visible
15 Aug - 09:06:10 10° SE 09:08:00 12° ESE 09:09:54 10° E daylight
15 Aug - 10:44:58 10° SSW 10:49:34 79° SE 10:54:38 10° NE daylight
15 Aug - 12:28:43 10° W 12:32:46 26° NNW 12:37:08 10° NNE daylight
15 Aug - 14:14:29 10° NW 14:17:13 14° N 14:20:05 10° NNE daylight
15 Aug - 15:58:20 10° NNW 16:01:58 18° NNE 16:05:48 10° ENE daylight
15 Aug - 17:40:38 10° NNW 17:45:55 44° NE 17:51:34 10° ESE daylight
15 Aug - 19:23:15 10° NW 19:28:38 47° WSW 19:34:20 10° S daylight
